User: anonymous   Login
Location: Caltech
(34.1382°N, 118.1253°W)
Time: 01:21:58
(UTC-07:00)
Language:

Gbstr 26 Del rocket - Orbit

View from above orbital plane
View from above orbital plane
View from above satellite
View from above satellite

Ground track
Ground track

The orbit data is extracted from the following two-line orbital elements,

1 25876U 99041E   17116.66038949 +.00000212 +00000-0 +75938-4 0  9993
2 25876 051.7662 160.1438 0531478 237.8446 116.9870 14.04043800907363
Epoch (UTC): 26 April 2017 15:50:57
Eccentricity: 0.0531478
inclination: 51.7662°
perigee height: 494 km
apogee height: 1265 km
right ascension of ascending node: 160.1438°
argument of perigee: 237.8446°
revolutions per day: 14.04043800
mean anomaly at epoch: 116.9870°
orbit number at epoch: 90736

The dashed part of the orbit path shows where the satellite is in the earth's shadow,  

DLR